Simultaneous Nadir Overpasses (SNOs) Predictions

Prediction of SNOs between GOES-17 and LANDSAT-8 Satellite Orbit:

Table of predicted SNOs for the next 14.0 days since TLE Epoch: 10/16/2023
Index Date Time (GOES-17) GOES-17 Lat,Lon LANDSAT-8 Lat,Lon Distance(km) Time Diff (sec)
1 10/16/2023 17:00:40 -0.00,-104.70 -0.64,-101.81 329.96 80
2 10/17/2023 05:22:04 0.00,-104.69 -0.47,-107.00 261.49 80
3 10/19/2023 05:07:11 0.00,-104.69 0.12,-104.03 74.39 80
4 10/21/2023 04:54:58 0.00,-104.67 0.74,-101.06 410.17 80
5 10/21/2023 17:16:13 0.00,-104.68 0.36,-106.21 175.32 80
6 10/23/2023 17:06:40 0.01,-104.67 -0.29,-103.25 160.99 80
7 10/24/2023 05:28:02 -0.01,-104.66 -0.85,-108.43 429.64 80
8 10/25/2023 16:54:26 0.01,-104.66 -0.91,-100.28 497.64 80
9 10/26/2023 05:15:49 -0.01,-104.65 -0.16,-105.48 92.99 80
10 10/28/2023 05:00:55 -0.01,-104.65 0.44,-102.50 244.13 80
11 10/28/2023 17:22:09 0.01,-104.65 0.64,-107.66 341.70 80
